Regional Weather Roundup
Issued by NWS

Home | Current Version | Previous Version | Text Only | Print | Product List | Glossary Off
Versions: 1 2 3 4 5 6 7 8 9 10 11 12 13 14 15 16 17 18 19 20 21 22 23 24 25 26 27 28 29 30 31 32 33 34 35 36 37 38 39 40 41 42 43 44 45 46 47 48 49 50

000
ASUS43 KMPX 311401
RWRMN
WEATHER ROUNDUP FOR MINNESOTA
NATIONAL WEATHER SERVICE TWIN CITIES/CHANHASSEN MN
900 AM CDT FRI JUL 31 2015


NOTE: "FAIR" INDICATES FEW OR NO CLOUDS BELOW 12,000 FEET WITH NO
SIGNIFICANT WEATHER AND/OR OBSTRUCTIONS TO VISIBILITY. N/A MEANS
CURRENT SKY AND/OR WEATHER CONDITIONS ARE NOT AVAILABLE.

MNZ060>063-068>070-311500-
   Twin Cities Metro

CITY           SKY/WX    TMP DP  RH WIND       PRES   REMARKS
TWIN CITIES    SUNNY     73  53  49 NW14      30.08R
ST PAUL        SUNNY     73  53  49 NW10      30.07S
CRYSTAL        SUNNY     73  54  51 W13       30.07R
BLAINE         SUNNY     72  55  56 W9G18     30.07
LAKEVILLE      SUNNY     70  57  64 W8        30.09S
EDEN PRAIRIE   SUNNY     73  56  54 W10       30.08S
SOUTH ST PAUL  SUNNY     73  53  49 W10       30.07S
LAKE ELMO      FAIR      70  55  60 W12       30.07S
$$
MNZ001>005-007-008-013>017-022>024-027-028-311500-
   Northwest Minnesota

CITY           SKY/WX    TMP DP  RH WIND       PRES   REMARKS
BEMIDJI        SUNNY     65  53  65 W12       30.05R
HALLOCK        SUNNY     66  54  63 NW10      30.03S
ROSEAU           N/A     63  55  77 W9G16     30.01R
WARROAD        SUNNY     63  57  82 W10G18    30.00R
THIEF RVR FALL SUNNY     64  52  63 W9        30.05S
CROOKSTON      SUNNY     66  55  68 NW10      30.07S HAZE
FOSSTON        SUNNY     64  52  63 W12       30.07S
DETROIT LAKES  SUNNY     66  52  59 NW9       30.11R
MOORHEAD       SUNNY     68  55  64 W8        30.10S
PARK RAPIDS    SUNNY     66  52  60 W14       30.08R
MAHNOMEN       FAIR      63  54  71 W9        30.09R
$$
MNZ006-009>011-018-025>026-311500-
   North Central Minnesota

CITY           SKY/WX    TMP DP  RH WIND       PRES   REMARKS
BAUDETTE       SUNNY     65  54  67 W12       29.98R
FLAG ISLAND    SUNNY     63  55  77 W14       29.95S
INTL FALLS     SUNNY     64  57  78 W9        29.96R
WASKISH        SUNNY     66  55  68 W15       30.01S
BIG FORK       SUNNY     66  55  68 W7        30.00S
LONGVILLE      SUNNY     66  55  68 W9        30.05R
GRAND RAPIDS   SUNNY     66  54  63 W14       30.02S
CRANE LAKE     SUNNY     61  55  82 W5        29.96R
ORR            SUNNY     63  54  72 W7        29.95S
COOK           SUNNY     64  55  72 W10G16    29.98R
WALKER         FAIR      63  53  69 W7        30.05R
$$
MNZ012-019>021-037-311500-
   Northeast Minnesota

CITY           SKY/WX    TMP DP  RH WIND       PRES   REMARKS
DULUTH         SUNNY     67  52  58 NW15G23   29.98R
ELY            MOSUNNY   63  54  72 NW12G20   29.94S
HIBBING        SUNNY     66  54  65 W12       29.99R
EVELETH        SUNNY     64  52  63 NW14      29.99R
DULUTH HARBOR  SUNNY     70  55  60 W15       29.97S
TWO HARBORS    SUNNY     70  59  68 NW5       29.93S
SILVER BAY     SUNNY     70  55  60 W3        29.92S
GRAND MARAIS     N/A     70  54  56 VRB7      29.86R
G MARAIS ARPRT SUNNY     64  52  63 W9        29.90S
$$
MNZ029>031-032-039>041-046>048-054>057-064-311500-
   West Central Minnesota

CITY           SKY/WX    TMP DP  RH WIND       PRES   REMARKS
FERGUS FALLS   SUNNY     63  55  77 NW5       30.12S
WHEATON        SUNNY     66  55  68 W6        30.14S
MORRIS         SUNNY     68  59  73 NW8       30.12S
ALEXANDRIA     SUNNY     67  55  65 W8        30.13S
ELBOW LAKE     FAIR      64  57  77 W5        30.12S
WADENA         SUNNY     66  54  63 NW8       30.10R
GLENWOOD       SUNNY     68  55  64 W10G17    30.13S
APPLETON       SUNNY     70  57  64 NW7       30.12S
BENSON         MOSUNNY   70  57  64 NW5       30.12S
ORTONVILLE     SUNNY     70  54  56 NW5       30.13S
MADISON        SUNNY     70  55  60 W3        30.13S
WILLMAR        FAIR      68  61  77 W8        30.14R
$$
MNZ033>034-036-042>043-049>051-058-059-311500-
   Central Minnesota

CITY           SKY/WX    TMP DP  RH WIND       PRES   REMARKS
ST CLOUD       SUNNY     70  53  54 W13       30.09R
SAUK CENTRE    FAIR      67  58  72 W8        30.11F
PAYNESVILLE    SUNNY     66  57  71 SW6       30.12S
AITKIN         SUNNY     68  55  64 W6        30.03S
PINE RIVER     SUNNY     64  54  68 W5        30.09S
BRAINERD       SUNNY     65  52  62 W9        30.07R
STAPLES        SUNNY     66  54  63 W9        30.09S
LONG PRAIRIE   FAIR      66  54  63 W7        30.11S
LITTLE FALLS   SUNNY     68  52  56 W9        30.09S
LITCHFIELD     SUNNY     72  59  64 W7        30.12R
BUFFALO        SUNNY     70  55  59 W9        30.11S
MAPLE LAKE     SUNNY     70  57  64 W10G16    30.10S
$$
MNZ037-044-045-052-053-311500-
   East Central Minnesota

CITY           SKY/WX    TMP DP  RH WIND       PRES   REMARKS
PRINCETON      SUNNY     72  55  56 W12       30.07S
MORA           SUNNY     64  52  63 W12       30.07S
CAMBRIDGE      SUNNY     72  55  56 W10G16    30.05R
RUSH CITY      MOSUNNY   68  55  62 W9        30.05S
MOOSE LAKE     SUNNY     68  54  60 W12       30.01R
HINCKLEY       FAIR      68  57  68 W9G16     30.04R
CLOQUET        SUNNY     66  52  59 W10G21    30.00S
MCGREGOR       SUNNY     66  54  63 W8        30.04S
$$
MNZ071>073-080-081-089-090-097-098-311500-
   Southwest Minnesota

CITY           SKY/WX    TMP DP  RH WIND       PRES   REMARKS
MONTEVIDEO     SUNNY     73  64  73 NW3       30.15S
GRANITE FALLS  SUNNY     67  59  75 W5        30.15S
CANBY          SUNNY     71  53  51 W7        30.16S
MARSHALL       SUNNY     72  54  53 NW8       30.17R
REDWOOD FALLS  SUNNY     70  57  63 W7        30.13S
OLIVIA         SUNNY     68  57  68 W5        30.12S
PIPESTONE      SUNNY     72  55  56 NE5       30.18S
WINDOM         SUNNY     70  59  68 CALM      30.16S
WORTHINGTON    MOSUNNY   70  57  64 NW3       30.18R
JACKSON        PTSUNNY   70  61  73 N3        30.17R
TRACY          SUNNY     70  59  68 NW5       30.16S
SLAYTON        PTSUNNY   71  59  65 CALM      30.19R
$$
MNZ065>067-074>077-082>085-091>093-311500-
   South Central Minnesota

CITY           SKY/WX    TMP DP  RH WIND       PRES   REMARKS
MANKATO        SUNNY     70  55  60 NW8       30.12S
NEW ULM        SUNNY     66  61  82 W7        30.12S
ST JAMES       SUNNY     70  61  73 NW6       30.15S
FAIRMONT       MOSUNNY   70  55  60 NW6       30.14S
GLENCOE        SUNNY     70  60  70 W7        30.11R
FARIBAULT      SUNNY     70  57  64 W8        30.11S
OWATONNA       SUNNY     70  61  73 W6        30.11S
WASECA         SUNNY     68  59  73 W6        30.13S
ALBERT LEA     SUNNY     70  61  73 W5        30.12S
$$
MNZ078>079-086>088-094>096-311500-
   Southeast Minnesota

CITY           SKY/WX    TMP DP  RH WIND       PRES   REMARKS
ROCHESTER      SUNNY     69  60  73 NW9       30.11S
RED WING       SUNNY     72  57  60 W12       30.06S
STANTON        SUNNY     71  59  66 W9        30.09R
DODGE CENTER   SUNNY     70  57  64 W8        30.11S
WINONA         SUNNY     73  59  60 W7        30.06R
AUSTIN         SUNNY     72  57  60 W10       30.11S
PRESTON        SUNNY     69  57  65 NW12      30.10S
$$
ABBREVIATIONS USED IN REMARKS
   TC - TEMPERATURES IN CELSIUS
  WCI - WIND CHILL INDEX
   HX - HEAT INDEX
  VSB - VISIBILITY
$$



USA.gov is the U.S. government's official web portal to all federal, state and local government web resources and services.